Location: Gälforsberget
(66.6500°N, 22.4167°E)
Time: 11:20:15
(UTC+00:00)

Cosmos 1869 Rocket - Pass Details

Date: 11 April 2026
Orbit: 598 x 624 km, 82.5° (Epoch: 10 May)

Event Time Altitude Azimuth Distance (km) Brightness Sun altitude
Rises 18:56:06 0° 175° (S) 2,882 6.6 -5.5°
Reaches altitude 10° 18:58:21 10° 170° (S) 1,985 5.7 -5.6°
Maximum altitude 19:02:35 48° 97° (E) 821 3.9 -6.0°
Drops below altitude 10° 19:06:51 10° 23° (NNE) 2,010 6.4 -6.3°
Sets 19:09:09 0° 18° (NNE) 2,924 7.3 -6.5°
